Weather in Sanliurfa

Turkey     37°09′32″N   38°47′31″E
В апреле 2022 года жителям России запретили посещать сайт meteo.paraplan.net по решению Генеральной прокуратуры. Аудитория сайта уменьшилась в 10 раз. Владельцы сайта не видят смысла в поддержке погодного сервера в таких условиях. Сайт будет закрыт в октябре.
temp.,
°C
wind,
m/s
gust,
m/s
humid.,
%
clouds,
%
prec.,
mm/h
press.,
hPa
HPBL,
m
4 october, tue
tue400:00+24sse22394 0.0 100714
03:00+23ese22382 0.0 100811
06:00+21ese22330 0.0 100920
09:00+25ese57230 0.0 1010417
12:00+30sse67160 0.0 10101094
15:00+31ssw612210 0.0 10092545
18:00+28ssw69300 0.0 1010236
21:00+25sw11400 0.0 101211
5 october, wed
wed500:00+24nnw22443 0.0 101311
03:00+23nne334889 0.0 101318
06:00+21ene22395 0.0 101312
09:00+25se681959 0.0 1014482
12:00+30sse5621100 0.0 1013997
15:00+31s4520100 0.0 10121671
18:00+28wsw4425100 0.0 101246
21:00+25wsw34355 0.0 101346
6 october, thu
thu600:00+23wnw22435 0.0 101314
03:00+22nw22440 0.0 101411
06:00+21nnw11440 0.0 101411
09:00+25n11320 0.0 1014262
12:00+29s24280 0.0 10121550
15:00+30ssw47200 0.0 10102072
18:00+27sw34190 0.0 101043
21:00+23wsw47290 0.0 1012111
7 october, fri
fri700:00+22wnw22460 0.0 101112
03:00+20nnw11490 0.0 101111
06:00+19nw00501 0.0 101111
09:00+24nne10340 0.0 1011278
12:00+28s3423100 0.0 10101242
15:00+29s5727100 0.0 10082071
18:00+26sw6831100 0.0 1008351
21:00+23wsw583698 0.0 1010348
8 october, sat
sat800:00+20w22415 0.0 101024
03:00+19wsw11535 0.0 101111
06:00+17wsw22590 0.0 101212
09:00+20sw224639 0.0 1013414
12:00+24s45350 0.0 10121327
15:00+25ssw45260 0.0 10101854
18:00+22sw57320 0.0 1009255
21:00+20w47460 0.0 1011197